Location: Unspecified
(34.4950°S, 58.5160°W)
Time: 18:34:56
(UTC+00:00)

Meteor 2-4 Rocket - Pass Details

Date: 04 December 2021
Orbit: 799 x 908 km, 81.2° (Epoch: 17 January)

Event Time Altitude Azimuth Distance (km) Brightness Sun altitude
Rises 23:14:37 0° 189° (S) 3,343 7.5 -4.4°
Reaches altitude 10° 23:17:00 10° 188° (S) 2,411 6.7 -4.8°
Maximum altitude 23:22:28 90° 286° (WNW) 827 3.7 -5.8°
Drops below altitude 10° 23:27:58 10° 6° (N) 2,430 5.7 -6.7°
Sets 23:30:22 0° 6° (N) 3,371 6.4 -7.1°
